Regional Weather Roundup
Issued by NWS Newport/Morehead, NC

Home | Current Version | Previous Version | Text Only | Print | Product List | Glossary On
Versions: 1 2 3 4 5 6 7 8 9 10 11 12 13 14 15 16 17 18 19 20 21 22 23 24 25 26 27 28 29 30 31 32 33 34 35 36 37 38 39 40 41 42 43 44 45 46 47 48 49 50
000
ASUS42 KMHX 161626
RWRMHX
WEATHER ROUNDUP FOR EASTERN NORTH CAROLINA
NATIONAL WEATHER SERVICE NEWPORT/MOREHEAD CITY NC
1200 PM EDT MON MAY 16 2022

NOTE: "FAIR" INDICATES FEW OR NO CLOUDS BELOW 12,000 FEET
WITH NO SIGNIFICANT WEATHER AND/OR OBSTRUCTIONS TO VISIBILITY

NCZ015>017-031-032-045>047-102-103-161700-
NORTH COAST

CITY           SKY/WX    TMP DP  RH WIND       PRES   REMARKS
EDENTON        MOSUNNY   84  72  67 SW9       29.82F
ELIZABETH CITY SUNNY     82  67  60 S14       29.81F
KITTY HAWK     SUNNY     80  66  60 SW8       29.82F
MANTEO         MOSUNNY   80  66  63 SW12      29.84F

$$

NCZ045>047-081-094-103-104-161700-
CENTRAL COAST

CITY           SKY/WX    TMP DP  RH WIND       PRES   REMARKS
FRISCO         SUNNY     76  68  76 SW10      29.88F

$$

NCZ095-097-098-100-101-161700-
SOUTHERN COAST

CITY           SKY/WX    TMP DP  RH WIND       PRES   REMARKS
PINEY ISLAND   MOSUNNY   84  69  60 SW21G28   29.85F
BEAUFORT       SUNNY     79  71  76 SW17      29.87F
CAPE CARTERET  MOSUNNY   81  70  69 SW16      29.87F
JACKSONVILLE   MOSUNNY   82  67  60 SW10G20   29.85F
WILMINGTON     SUNNY     85  66  53 SW16      29.85F


$$

NCZ011>013-027>030-043-044-078>080-089-090>093-098-161700-
COASTAL PLAIN

CITY           SKY/WX    TMP DP  RH WIND       PRES   REMARKS
AHOSKIE        MOSUNNY   82  66  58 SW10G20   29.80S
ROCKY MOUNT    PTSUNNY   82  66  58 SW10      29.82F
GREENVILLE     MOSUNNY   86  66  51 SW13      29.81F
WASHINGTON     MOSUNNY   85  65  52 SW10G20   29.82F
GOLDSBORO      MOSUNNY   82  66  57 SW12      29.82S
KINSTON        MOSUNNY   84  66  54 SW13G22   29.84F
NEW BERN       MOSUNNY   84  68  58 SW12G18   29.85F
HAVELOCK       PTSUNNY   83  70  64 S15       29.86F
KENANSVILLE    MOSUNNY   84  66  54 MISG      29.84F
RICHLANDS      PTSUNNY   84  68  58 SW18G24   29.85F
CLINTON        SUNNY     85  68  57 SW10      29.85S
ELIZABETHTOWN  MOSUNNY   85  66  53 SW12G22   29.85F
WHITEVILLE     SUNNY     84  64  50 SW8       29.87F

$$

AMZ130-135-150-152-154-156-158-170-250-252-270-ANZ085-086-088-633-658-670-161700-
MARINE OBSERVATIONS

STATION/POSITION TIME  TEMP    WIND        PRES    WAVE   SWELL
                       AIR SEA DIR/SP/G            HT/PER HT/PER
                 (UTC) (F)     (DEG/KT/KT) (MB)    (FT/S) (FT/S)
64 E VA BEACH    1610          190/ 12/ 14 1009.3
64 E VA BEACH    1530   61 57                N/A     3/ 9
DUCK PIER        1542   76 54  210/ 11/ 13 1009.8
2 E DUCK         1556      58                N/A     2/ 8
10 NE DUCK       1556      64                N/A     3/ 8
OREGON INLET     1542   71 73  210/ 15/ 19 1010.8
13E OREGON INLT  1556      63                N/A     3/ 8   2/ 8
13E CAPE HATTERA 1556      64                N/A     3/ 8
HATTERAS CG      1548   73 65  220/ 10/ 14 1011.9
DIAMOND BUOY     1610      67  220/ 10/ 12 1011.8
CAPE LOOKOUT     1600   76     210/  9/ 15 1012.0
BEAUFORT LAB     1548   75 72  200/ 12/ 15 1010.7
30 SE NEW RVR IN 1608   73 72  240/ 12/ 16 1012.3
30 SE NEW RVR IN 1556      72                N/A     3/ 9
27 SE WRIGHTSVLE 1608   74 73  190/ 10/ 16 1011.7
5 SE WRIGHTSVLE  1508   73 72  230/ 12/ 16 1012.1
27 SE WRIGHTSVL  1608   74 73  190/ 10/ 16 1011.7
FRYING PAN BUOY  1610   74 73  200/  8/ 10 1012.6
225 S CAPE HAT   1610   76 77  210/ 12/ 14 1013.0
41 SE CHARLESTON 1600      74  220/ 10/ 12 1013.3

$$



USA.gov is the U.S. government's official web portal to all federal, state and local government web resources and services.